Theta_e
296 296 295 296 296 296 296 296 296 297 297 298 298 298 300 300 301 296 293 296 290 285 285 287 288 285 285 284 280 282 281 281 280 276 273 273 270 271 268 272 267 269 268 267 270 270 264 276 275 271 276 270 270 270
296 296 295 295 295 295 296 296 296 296 297 298 298 298 300 300 300 298 290 296 295 287 284 287 286 286 286 287 285 282 281 279 281 276 276 276 274 272 268 269 275 268 274 272 273 272 276 275 274 272 270 270 270 273
296 295 295 295 295 295 295 295 296 296 297 298 297 297 299 300 301 298 292 292 290 285 284 284 283 286 288 287 289 283 283 285 281 282 280 278 271 277 271 273 273 275 278 275 274 276 275 275 275 274 274 275 276 276
295 295 295 295 295 294 294 295 295 296 296 297 297 297 299 300 300 296 290 292 290 286 280 279 287 283 287 288 288 288 286 286 286 284 280 277 273 278 275 275 274 278 278 277 276 277 277 278 278 277 275 274 275 275
294 295 295 295 295 294 294 294 295 295 296 297 297 297 298 299 299 295 293 292 291 286 279 278 281 282 285 286 287 287 288 286 284 279 277 273 277 276 278 276 274 278 277 276 276 280 279 278 277 277 276 275 274 274
295 295 295 295 294 294 294 294 295 295 296 297 296 297 298 300 295 289 283 289 288 288 279 272 278 274 277 280 284 285 287 286 285 282 278 278 281 278 273 269 278 280 280 279 278 277 278 277 276 276 275 274 273 273
294 295 295 295 295 294 294 294 294 295 295 296 296 296 298 297 292 286 283 288 291 288 279 271 272 279 280 279 281 284 285 284 284 283 280 278 278 277 277 269 278 279 279 278 277 277 275 276 274 273 272 270 269 267
295 295 295 295 295 294 294 294 294 294 295 295 296 296 299 296 292 285 289 293 290 283 280 270 270 275 279 278 277 281 282 283 279 279 280 278 278 278 273 276 278 278 276 275 274 274 275 273 272 271 270 269 267 269
294 294 294 293 293 294 293 294 294 295 296 296 296 295 287 285 284 284 290 290 287 283 272 272 269 269 278 277 278 279 280 275 272 275 275 275 271 267 273 277 277 275 274 274 271 269 269 268 268 266 265 264 264 266
294 294 293 293 293 293 294 294 295 295 296 296 289 285 282 284 291 292 286 280 281 277 275 271 272 271 277 276 274 272 276 272 267 269 270 270 268 275 276 274 276 276 274 271 266 264 261 261 262 263 263 262 262 262
293 294 293 293 293 294 294 294 295 296 292 285 284 281 285 292 285 283 278 273 273 272 275 269 271 271 276 270 270 271 269 267 262 264 267 267 265 272 270 270 271 273 272 267 266 266 265 266 264 261 260 259 258 257
293 293 294 293 293 294 294 295 296 289 286 287 286 286 284 282 279 275 271 268 268 268 271 268 269 274 271 274 269 268 266 264 260 262 266 260 270 268 264 265 265 270 268 265 262 266 264 266 263 261 259 259 258 257
292 293 293 293 293 294 295 295 294 293 291 286 283 279 279 275 273 271 264 266 268 268 271 271 272 271 268 272 268 268 264 260 261 264 260 267 268 266 263 260 260 258 262 262 259 259 259 259 257 258 258 257 255 254
292 292 292 293 293 295 295 295 294 291 285 282 277 272 273 270 271 269 268 269 271 271 273 273 274 270 268 267 268 265 261 261 258 258 260 267 268 266 263 261 262 260 258 259 259 258 258 259 258 256 258 255 254 255
291 291 291 291 293 295 295 293 288 283 281 275 275 269 264 263 264 262 264 268 270 276 275 271 269 272 271 266 264 260 258 256 260 262 266 268 264 263 263 262 261 260 258 257 258 259 261 258 258 259 260 259 257 254
292 293 290 292 294 294 291 288 284 282 276 274 271 264 263 265 266 267 269 268 274 272 271 271 265 264 262 264 261 260 261 260 265 264 267 265 261 261 262 262 262 262 260 260 261 261 261 261 261 263 257 256 257 258
289 284 292 294 290 290 288 283 280 274 273 270 267 267 266 271 270 270 271 269 271 270 265 265 261 262 264 260 260 263 262 265 265 266 266 265 263 263 262 261 261 261 261 261 263 263 263 260 256 255 259 260 260 260
283 286 290 289 287 284 278 277 277 274 266 267 268 266 267 267 268 267 267 269 269 267 266 265 266 260 259 259 261 265 264 264 264 264 265 263 262 262 262 263 262 262 262 263 262 262 260 258 257 261 259 259 258 256
287 286 286 287 285 281 276 273 273 267 264 266 266 267 267 266 266 268 266 265 264 266 267 264 261 260 262 264 264 264 264 265 265 265 265 262 262 262 260 260 260 260 261 262 261 262 261 262 262 260 260 259 261 261
289 289 287 284 285 278 273 270 273 271 268 267 268 265 265 266 270 270 264 265 265 266 264 262 263 265 267 267 267 267 267 268 265 264 266 265 263 259 261 261 262 262 261 260 258 259 257 259 258 259 258 259 258 264
286 286 284 280 273 270 267 266 265 266 267 264 264 265 264 267 271 270 264 262 265 263 264 265 265 266 264 261 261 263 265 266 265 266 266 266 265 263 263 262 260 258 259 258 259 259 259 259 261 259 258 257 259 260
280 284 277 276 271 267 264 263 263 262 262 261 262 262 261 260 260 265 258 262 263 266 267 265 264 265 262 262 262 259 262 261 260 260 261 260 263 261 260 259 259 259 258 259 258 258 258 258 257 257 256 256 257 255
282 278 270 270 268 265 261 264 262 261 261 260 259 259 257 257 256 257 258 261 264 265 263 262 260 255 259 255 255 256 255 257 260 260 260 260 261 259 258 257 257 257 257 256 257 256 256 258 256 256 255 255 254 254
277 265 264 261 263 259 259 258 260 260 259 260 259 257 256 256 256 258 258 259 264 258 257 257 255 257 257 255 256 260 259 259 257 258 257 258 258 259 256 256 255 255 256 255 255 254 254 254 255 253 253 253 254 255
268 265 263 258 257 259 258 257 256 258 257 255 256 255 255 253 256 254 255 260 258 256 257 254 255 257 260 258 259 259 254 259 259 260 257 258 255 255 255 254 254 254 253 254 253 252 252 252 252 252 252 255 255 255
262 261 261 259 256 259 257 256 255 256 254 254 252 250 250 253 253 256 258 260 258 258 257 261 261 256 256 261 259 258 258 253 256 257 256 254 254 256 254 253 252 255 253 253 253 253 255 255 257 258 259 259 258 255
261 261 256 255 258 258 255 254 254 255 253 254 251 250 251 253 254 260 260 258 259 257 254 254 259 261 260 257 255 253 252 252 255 255 253 252 253 253 254 253 254 257 257 258 260 257 259 260 260 260 258 255 253 253
265 260 263 257 255 255 255 253 253 256 256 254 255 254 256 258 260 261 259 255 251 252 251 250 250 251 254 254 252 254 251 249 250 251 251 252 251 253 255 257 258 266 263 262 261 261 260 260 259 258 254 251 251 252
262 261 263 255 255 255 256 259 260 260 261 260 259 256 258 259 257 255 253 251 249 251 253 253 253 250 250 250 250 250 251 253 255 254 253 253 255 257 258 260 261 261 261 261 265 261 260 259 258 257 256 255 254 254
261 264 258 257 261 262 264 265 262 259 257 257 255 257 257 256 251 247 248 250 252 252 250 250 250 251 253 253 252 252 249 250 252 255 255 255 256 257 260 261 260 260 260 259 257 258 262 258 259 254 254 253 253 252
262 261 260 261 261 257 253 257 259 261 260 261 254 256 255 252 251 246 246 245 246 247 249 251 250 248 250 249 250 252 254 251 253 255 257 258 258 260 260 260 260 259 258 258 257 256 255 255 253 252 251 250 249 248
260 260 262 261 260 253 254 258 260 263 258 261 260 250 253 254 257 252 247 246 248 250 249 247 248 249 247 247 249 250 255 254 255 257 259 260 260 260 260 260 260 259 258 257 256 255 253 250 248 246 244 242 241 241
258 261 262 262 261 260 257 260 259 256 255 257 254 247 246 253 261 251 247 245 246 246 246 246 246 246 248 250 253 255 257 258 261 265 263 262 261 261 260 259 259 257 254 251 250 249 248 247 245 243 243 242 240 239
Wind_Speed
22 23 21 19 20 20 20 19 17 14 15 16 15 13 12 7 24 10 3 5 4 1 2 3 3 2 3 3 4 5 4 1 2 2 3 3 3 4 2 3 6 7 7 4 4 5 10 6 5 6 3 3 3 1
26 23 22 19 19 19 20 18 17 13 15 14 14 13 11 21 24 14 3 3 3 3 2 2 3 2 3 3 2 4 1 2 4 2 1 2 2 2 2 3 1 3 6 5 7 5 1 3 3 2 4 4 0 1
26 26 24 21 18 18 18 16 15 14 15 15 13 12 12 12 22 14 6 6 4 3 2 2 3 3 3 4 3 3 1 1 2 2 1 1 2 3 4 5 4 4 2 2 3 1 3 4 2 4 2 1 2 3
30 26 26 23 19 18 17 14 15 14 14 11 11 9 9 13 15 10 5 5 4 3 2 3 1 3 2 3 3 3 2 2 4 1 1 2 3 1 0 1 2 1 5 6 2 3 4 3 5 5 4 2 4 4
28 26 26 19 18 17 17 15 15 13 12 9 8 8 10 11 20 5 5 3 3 1 2 3 1 2 2 2 4 3 1 3 2 1 2 2 2 2 1 2 4 6 7 5 5 7 3 4 8 4 5 4 4 4
22 24 25 21 19 18 17 15 14 12 12 11 8 3 7 9 26 6 3 1 2 3 4 3 1 4 4 3 2 3 1 1 1 2 2 2 0 2 2 4 5 7 3 3 5 5 8 11 8 3 5 4 4 3
20 24 25 24 22 18 17 14 14 12 11 10 8 3 7 22 7 3 5 4 14 3 4 3 1 1 1 0 1 2 1 1 2 2 1 3 2 3 3 4 4 6 7 6 7 8 6 5 5 5 5 4 2 1
25 22 22 14 14 16 14 13 13 10 9 7 7 2 13 22 11 5 5 17 8 5 3 3 1 1 0 1 2 2 2 1 3 2 1 2 1 2 7 6 4 6 8 6 4 5 5 9 7 5 3 3 3 2
24 19 12 4 7 11 10 11 11 10 10 7 14 24 7 3 3 3 9 10 3 4 4 2 4 2 1 2 2 0 1 2 1 1 1 1 3 6 8 5 8 8 8 10 6 6 5 6 6 4 3 2 1 2
21 17 11 4 4 8 10 11 12 11 18 25 5 2 3 2 22 13 5 3 3 3 3 3 1 3 0 1 1 2 1 2 1 3 3 2 5 9 7 6 6 9 10 14 8 2 2 2 5 4 5 4 4 3
16 17 10 5 7 10 13 13 12 24 9 2 2 3 6 13 2 2 4 3 2 1 2 1 2 4 2 3 2 2 1 2 1 4 1 3 6 5 2 6 6 8 10 5 5 5 6 7 8 6 3 5 5 4
12 12 12 3 10 12 13 15 23 5 1 3 8 6 2 2 3 5 3 2 2 5 2 4 2 3 1 1 4 2 3 3 3 2 0 4 6 2 2 1 2 9 10 7 3 9 7 8 7 6 4 4 5 5
7 8 10 4 7 10 15 22 13 23 16 3 5 3 2 0 4 5 7 3 3 4 5 4 4 3 2 1 3 2 3 4 1 1 5 7 3 1 2 3 4 5 7 8 4 4 6 5 4 5 5 5 5 4
5 5 5 7 4 15 20 20 23 6 5 3 2 4 1 3 3 1 2 4 2 6 8 5 5 4 2 3 3 4 1 3 2 1 7 4 3 3 3 4 5 5 4 5 5 5 5 5 5 5 7 5 5 5
7 8 5 2 3 12 20 21 15 6 4 3 1 2 1 2 2 1 3 3 2 5 5 4 4 4 2 4 3 4 5 3 6 6 4 3 3 4 3 3 5 5 5 4 4 5 5 5 5 5 6 6 6 4
18 13 5 3 12 25 22 12 4 3 3 2 4 4 2 2 1 0 3 3 1 2 2 4 4 4 0 5 4 6 4 6 5 4 4 1 1 3 4 4 4 3 4 4 4 4 4 5 6 6 1 3 6 7
15 7 18 21 20 22 15 5 3 5 3 3 3 2 1 2 3 2 2 1 1 3 3 4 5 6 2 3 2 4 6 4 2 3 2 1 5 5 4 3 3 3 3 4 3 4 4 3 2 0 5 4 7 7
6 8 15 10 5 6 4 5 4 3 5 2 1 2 2 3 3 2 1 2 2 2 2 4 5 3 5 5 4 4 3 2 1 1 2 1 2 2 4 5 4 5 5 5 5 3 3 4 4 5 5 5 4 4
8 6 12 9 2 4 3 4 3 5 2 1 2 2 3 1 2 2 2 3 1 1 5 3 5 3 4 4 4 3 1 2 2 3 2 3 3 4 3 2 3 3 4 4 3 4 4 6 5 3 3 2 4 4
8 13 10 11 3 3 4 3 1 4 3 2 2 3 2 1 1 2 2 3 1 2 4 2 5 5 5 4 4 4 4 4 4 2 3 2 3 4 4 5 4 3 2 2 3 3 2 3 2 3 3 4 3 6
5 5 9 5 4 7 5 3 4 3 2 3 1 1 2 2 1 1 0 2 3 2 2 4 4 3 2 2 1 1 1 3 3 5 5 2 3 1 2 2 2 0 1 1 2 3 2 4 4 3 2 4 4 5
2 7 2 4 4 4 5 2 3 2 3 2 2 0 2 2 1 2 3 3 3 4 4 3 3 2 2 3 4 5 4 3 2 1 1 2 2 2 2 3 2 2 3 4 3 4 3 2 2 2 2 4 4 3
3 4 4 4 5 6 1 1 3 4 4 1 1 4 3 2 2 1 0 4 4 4 2 2 2 1 2 1 2 3 3 4 3 4 3 4 4 3 2 3 3 3 4 3 2 1 2 3 4 3 3 3 3 3
7 5 4 3 4 1 2 5 3 3 3 3 3 2 1 1 3 3 2 4 5 1 0 3 3 2 3 4 2 5 4 5 2 3 2 2 3 4 3 2 1 2 4 2 1 2 3 3 4 3 3 4 4 4
5 4 5 3 3 5 4 2 3 4 2 1 3 0 2 2 2 0 4 6 3 4 4 3 2 3 4 3 3 4 2 4 4 4 3 3 2 3 3 2 2 4 1 2 2 2 3 3 3 3 4 3 3 3
2 3 4 5 1 5 5 4 4 5 3 2 1 2 2 3 3 6 6 5 4 4 4 6 6 3 4 5 3 1 3 3 4 2 3 3 3 4 2 1 1 4 0 3 2 2 3 3 2 2 3 3 1 2
5 6 2 1 3 4 4 3 2 4 4 6 5 3 3 3 6 7 4 3 3 3 0 1 3 5 4 2 1 1 1 3 3 4 2 2 2 3 4 3 3 3 2 3 3 3 3 2 0 1 2 2 1 2
5 5 9 5 2 1 6 3 5 8 5 3 5 4 9 10 8 5 4 2 0 0 1 1 2 2 2 1 2 4 3 2 3 2 2 3 1 1 1 1 2 5 2 3 2 1 1 2 3 4 4 3 2 3
3 3 6 4 2 2 5 7 7 5 6 6 7 5 6 5 2 0 2 2 2 2 2 1 3 2 3 3 3 2 3 4 4 3 2 2 2 2 1 1 2 2 2 3 6 5 6 5 5 5 6 4 2 4
4 4 5 4 8 8 6 6 3 2 2 3 2 2 3 3 2 1 2 3 3 2 0 1 1 1 1 2 1 3 2 1 2 4 4 2 3 2 2 3 3 3 4 5 6 7 9 7 7 4 5 4 4 4
2 3 3 3 5 1 0 1 1 2 2 1 2 2 4 4 3 2 2 1 1 1 1 2 3 2 3 2 2 2 3 2 1 3 4 3 3 4 3 3 3 3 4 5 4 4 5 5 5 5 6 6 6 5
2 4 4 4 2 2 1 2 2 2 2 0 1 2 3 4 3 1 3 2 3 3 3 1 3 1 2 3 2 2 2 3 3 3 5 5 4 4 4 4 4 4 5 5 4 5 7 7 6 6 5 6 5 6
2 2 2 2 2 3 1 2 1 2 2 1 0 1 1 2 6 2 2 1 2 2 1 2 3 3 2 1 0 2 4 3 5 9 9 9 8 7 5 4 5 6 8 7 6 6 8 9 6 6 6 6 6 5
Wind_Direction
306 308 308 298 283 279 279 276 267 267 269 273 276 259 274 237 193 159 150 170 178 197 87 50 20 353 337 123 146 124 127 192 143 229 168 194 145 200 108 150 174 163 164 190 181 210 266 149 97 167 156 300 137 26
316 309 304 296 283 274 272 268 265 260 264 261 267 254 267 196 207 167 123 158 79 69 80 45 65 59 8 1 81 176 83 143 172 171 153 101 110 125 197 224 178 232 200 183 184 211 301 156 135 165 147 160 257 289
317 310 302 292 285 272 270 261 263 256 259 254 256 246 262 217 201 168 130 129 93 140 122 183 127 62 51 17 310 147 217 125 42 170 106 77 135 132 166 224 180 245 177 225 49 241 170 140 89 128 126 94 359 30
313 309 302 292 274 266 258 255 251 250 253 248 250 245 236 194 183 138 132 163 103 137 199 104 160 63 15 4 46 354 86 40 94 25 88 169 154 88 232 132 197 158 135 197 238 101 81 162 133 138 146 123 52 31
303 303 307 289 268 257 249 237 236 243 248 250 241 225 249 210 178 116 98 171 95 150 115 107 140 16 347 340 61 50 152 112 128 127 128 202 89 102 78 42 239 180 190 192 223 167 141 131 127 114 123 83 57 22
296 301 303 287 267 247 239 230 228 230 237 236 234 246 257 209 134 105 83 267 189 125 106 97 93 17 351 348 63 48 129 97 214 163 180 90 129 127 191 238 244 183 74 85 167 84 86 111 98 84 107 76 58 44
310 313 306 289 258 230 222 221 218 218 238 228 213 164 152 132 120 105 181 168 152 114 92 90 107 55 84 304 139 154 68 112 282 108 138 125 210 148 245 237 209 176 135 110 111 117 89 162 145 112 105 93 86 276
338 328 329 341 183 203 199 209 206 202 217 190 190 72 179 135 127 50 10 133 107 91 64 109 87 166 277 193 106 342 143 151 25 48 102 182 86 200 252 231 154 125 114 111 103 54 87 109 101 103 92 78 54 62
342 339 338 55 160 177 188 196 178 195 189 142 90 108 76 43 98 100 130 96 58 107 126 128 139 129 256 60 75 131 325 107 293 24 175 54 165 221 226 190 171 169 171 158 104 82 88 115 136 122 107 80 104 290
340 342 332 267 167 171 177 175 181 180 119 118 80 81 103 59 130 126 20 57 25 5 42 92 260 108 232 132 20 78 7 59 163 237 1 227 256 243 214 188 173 160 140 134 110 126 110 152 170 169 191 187 194 221
332 344 343 252 196 180 177 178 169 127 92 85 109 65 110 143 97 80 115 119 119 124 121 85 66 124 352 115 126 24 163 51 104 264 132 255 271 248 283 163 151 140 141 131 124 121 149 149 164 165 205 218 209 218
336 347 358 243 185 184 178 161 138 99 150 164 111 90 107 111 77 90 74 58 177 186 129 124 165 95 94 59 96 312 105 42 236 281 300 266 258 292 93 109 84 134 133 122 124 132 125 123 147 160 183 208 210 208
340 354 5 19 169 158 146 137 121 124 122 40 65 99 203 2 117 158 162 217 182 160 160 152 121 127 48 58 72 109 119 216 20 140 228 234 261 322 117 85 49 40 91 107 97 95 117 134 119 157 210 234 214 228
337 26 2 13 163 154 156 136 138 94 46 71 116 125 200 149 234 160 183 133 125 110 138 119 111 115 140 79 143 110 242 70 349 276 241 253 268 215 162 141 117 169 150 148 167 159 166 177 210 224 224 212 186 230
322 280 244 261 241 159 143 114 79 49 24 68 341 130 120 95 42 15 293 81 7 137 116 100 56 97 94 90 52 92 32 276 200 232 237 261 282 170 171 155 143 159 178 185 183 178 200 199 205 246 232 215 209 226
11 111 165 176 135 115 110 94 61 106 62 71 65 79 327 78 24 65 70 93 293 125 60 58 118 78 92 125 98 206 156 226 246 220 247 271 236 181 170 180 193 150 164 191 195 192 195 203 213 236 300 213 227 224
22 30 48 116 89 75 57 73 64 45 65 74 64 11 6 25 85 52 37 195 303 78 133 112 94 194 105 75 250 186 207 228 232 303 300 292 169 179 172 180 155 164 190 212 211 209 218 210 133 9 286 265 231 230
32 17 40 52 68 78 54 27 79 76 68 17 60 13 43 10 58 45 330 351 55 107 82 180 128 103 159 165 261 251 257 268 211 257 307 328 105 148 173 191 206 204 212 225 220 224 178 180 224 250 234 249 247 251
33 42 9 8 53 83 70 44 18 91 57 44 94 46 52 111 190 270 42 353 339 96 103 44 83 160 220 212 205 250 203 182 199 237 244 238 204 187 209 214 220 226 226 223 201 228 222 206 216 220 226 186 241 263
8 1 23 40 55 74 76 31 322 81 94 85 56 56 45 29 357 59 11 352 358 75 46 100 199 212 176 225 190 199 195 182 132 75 299 294 206 165 212 210 232 225 246 273 262 227 303 309 253 232 223 222 231 270
6 347 354 30 45 60 72 6 58 48 95 69 52 12 86 319 137 178 146 305 50 168 234 226 221 225 154 131 116 118 137 133 197 166 198 256 274 174 294 285 218 208 216 287 277 285 230 235 255 252 228 244 238 246
294 356 64 16 79 66 81 360 108 168 78 140 105 356 85 81 77 17 308 37 232 232 200 190 224 171 171 234 231 199 203 181 219 266 327 92 303 306 283 229 114 258 238 233 214 247 262 264 316 321 298 273 271 272
0 32 42 28 78 48 304 201 92 4 94 239 43 67 12 43 269 293 216 225 251 242 201 182 194 133 162 331 356 301 199 174 242 239 237 229 237 237 213 236 197 215 277 287 230 248 272 297 309 295 288 297 283 278
35 58 65 54 59 120 14 25 36 59 43 41 65 83 330 248 312 52 248 252 245 328 331 228 146 68 4 12 268 243 226 180 225 289 207 148 273 285 217 222 193 206 202 212 286 274 278 279 287 292 280 284 291 279
65 320 86 359 351 83 76 54 18 57 114 272 99 306 261 10 74 273 232 266 251 240 219 173 159 188 190 246 275 262 262 150 177 221 278 166 149 13 344 306 269 240 158 77 318 276 284 294 295 287 283 280 284 292
173 274 127 183 276 119 177 121 176 174 126 88 206 247 37 80 84 242 233 229 230 209 192 186 181 167 261 209 220 260 256 166 108 129 280 162 167 158 190 196 324 307 298 140 150 271 284 277 270 321 332 343 350 98
182 223 256 282 111 106 59 35 55 106 157 177 185 154 109 148 236 248 266 242 199 251 188 190 168 175 185 211 207 164 145 117 142 174 173 122 130 153 146 169 221 236 220 236 232 222 260 286 277 90 86 31 30 115
191 152 165 193 96 73 137 143 156 187 196 183 103 169 175 196 228 236 213 276 129 354 87 12 28 68 111 130 145 117 72 79 68 43 30 22 21 117 157 263 260 288 286 285 250 236 152 125 115 113 109 98 37 32
150 172 117 116 119 174 194 176 202 218 160 155 164 202 229 225 235 147 302 303 328 41 59 23 329 18 34 28 38 47 121 136 108 64 61 284 349 332 272 18 29 7 17 33 76 95 93 92 88 82 75 71 37 48
187 161 105 151 158 208 219 177 203 140 100 152 147 352 339 311 299 291 343 4 40 50 280 232 295 57 271 113 28 341 317 144 131 136 157 196 193 165 80 73 59 53 63 74 67 58 66 67 81 55 59 51 43 46
106 106 96 146 212 245 311 7 74 53 50 89 63 148 233 285 324 8 57 10 297 307 49 25 15 41 77 32 97 75 352 311 139 92 99 97 88 86 84 78 78 77 72 78 76 80 88 76 69 74 73 69 52 47
73 168 147 186 236 293 270 177 146 140 111 159 284 357 329 23 279 293 326 0 15 44 31 58 82 347 288 244 259 243 208 127 141 120 102 97 94 93 92 89 83 82 84 82 69 76 79 83 84 81 81 65 46 34
47 50 64 118 135 172 187 121 111 100 21 250 284 356 249 191 236 274 303 132 154 182 224 261 262 274 274 250 75 92 86 102 119 108 108 107 106 100 87 83 87 85 84 78 70 84 87 92 82 76 71 55 36 15